Weather History for KTOR - March, 2013

Change the Weather History Date:

Sunday, March 10, 2013

  Actual Average Record
Temperature  
Mean Temperature 34 °F 36 °F  
Max Temperature 49 °F 50 °F 73 °F (2012)
Min Temperature 18 °F 23 °F -3 °F (2009)
Degree Days  
Heating Degree Days 31 29  
Month to date heating degree days 280 298  
Since 1 July heating degree days 4893 5142  
Cooling Degree Days 0 0  
Month to date cooling degree days 0 0  
Year to date cooling degree days 0 0  
Moisture  
Dew Point 14 °F    
Average Humidity 56    
Maximum Humidity 92    
Minimum Humidity 19    
Precipitation  
Precipitation 0.00 in 0.02 in 0.08 in (2001)
Month to date precipitation 0.09 0.14  
Year to date precipitation 0.48 0.74  
Sea Level Pressure  
Sea Level Pressure 30.12 in    
Wind  
Wind Speed 11 mph (NNW)    
Max Wind Speed 28 mph    
Max Gust Speed 35 mph    
Visibility 10 miles    
Events      
T = Trace of Precipitation, MM = Missing Value Source: NWS Daily Summary

Daily Weather History Graph

Daily Weather History Graph

Search for Another Location

Airport or City:

Trip Planner

Search our weather history database for the weather conditions in past years. The results will help you decide how hot, cold, wet, or windy it might be!

Date:

Astronomy

Mar. 10, 2013 Rise Set
Actual Time 7:16 AM MDT 6:57 PM MDT
Civil Twilight 6:48 AM MDT 7:25 PM MDT
Nautical Twilight 6:16 AM MDT 7:58 PM MDT
Astronomical Twilight 5:43 AM MDT 8:30 PM MDT
Moon 6:18 AM MDT (3/10) 6:08 PM MDT (3/10)
Length of Visible Light 12h 37m
Length of Day
11h 41m
Waning Crescent, 1% of the Moon is Illuminated
Mar 10
Waning Crescent
Mar 11
New
Mar 19
First Quarter
Mar 27
Full
Apr 2
Last Quarter

Hourly Weather History & Observations

Time (MDT) Temp. Windchill Dew Point Humidity Pressure Visibility Wind Dir Wind Speed Gust Speed Precip Events Conditions
12:53 AM 26.1 °F 16.2 °F 21.0 °F 81% 30.14 in 10.0 mi NNW 10.4 mph - N/A   Mostly Cloudy
1:53 AM 26.1 °F 15.0 °F 19.9 °F 78% 30.15 in 10.0 mi NNW 12.7 mph 19.6 mph N/A   Clear
3:53 AM 25.0 °F 14.2 °F 17.1 °F 72% 30.16 in 10.0 mi NNW 11.5 mph - N/A   Mostly Cloudy
4:53 AM 24.1 °F 13.7 °F 14.0 °F 65% 30.19 in 10.0 mi NNW 10.4 mph 17.3 mph N/A   Mostly Cloudy
6:53 AM 19.0 °F 8.2 °F 10.0 °F 68% 30.24 in 10.0 mi NNW 9.2 mph - N/A   Clear
7:53 AM 21.0 °F 8.6 °F 12.9 °F 71% 30.24 in 10.0 mi NNW 12.7 mph - N/A   Clear
8:53 AM 25.0 °F 16.3 °F 15.1 °F 66% 30.24 in 10.0 mi NW 8.1 mph - N/A   Clear
9:53 AM 30.0 °F 18.3 °F 16.0 °F 56% 30.22 in 10.0 mi NW 17.3 mph 25.3 mph N/A   Clear
10:53 AM 33.1 °F 22.2 °F 14.0 °F 46% 30.20 in 10.0 mi NNW 17.3 mph 25.3 mph N/A   Clear
11:53 AM 36.0 °F 25.3 °F 9.0 °F 33% 30.19 in 10.0 mi NNW 19.6 mph 29.9 mph N/A   Clear
12:53 PM 39.9 °F 30.8 °F 7.0 °F 26% 30.15 in 10.0 mi NNW 18.4 mph 28.8 mph N/A   Clear
1:53 PM 43.0 °F 34.5 °F 7.0 °F 23% 30.11 in 10.0 mi NW 19.6 mph 25.3 mph N/A   Clear
2:53 PM 46.0 °F 39.6 °F 6.1 °F 20% 30.08 in 10.0 mi NNW 15.0 mph 26.5 mph N/A   Clear
3:53 PM 48.0 °F - 8.1 °F 20% 30.07 in 10.0 mi North 18.4 mph 28.8 mph N/A   Clear
4:53 PM 48.9 °F - 12.0 °F 23% 30.05 in 10.0 mi North 16.1 mph 23.0 mph N/A   Clear
5:53 PM 48.9 °F - 14.0 °F 25% 30.05 in 10.0 mi NNW 11.5 mph 17.3 mph N/A   Clear
6:53 PM 45.0 °F 40.6 °F 14.0 °F 29% 30.07 in 10.0 mi NNW 8.1 mph - N/A   Clear
7:53 PM 37.9 °F 34.4 °F 15.1 °F 39% 30.08 in 10.0 mi WSW 4.6 mph - N/A   Clear
8:53 PM 37.9 °F - 12.9 °F 36% 30.06 in 10.0 mi Calm Calm - N/A   Clear
9:53 PM 30.0 °F 25.2 °F 16.0 °F 56% 30.07 in 10.0 mi Variable 4.6 mph - N/A   Clear
10:53 PM 34.0 °F 29.8 °F 14.0 °F 44% 30.04 in 10.0 mi NW 4.6 mph - N/A   Clear
11:53 PM 27.0 °F 18.7 °F 18.0 °F 69% 30.03 in 10.0 mi ENE 8.1 mph - N/A   Clear
12:53 AM 26.1 °F 19.4 °F 18.0 °F 71% 30.00 in 10.0 mi ENE 5.8 mph - N/A   Clear